Snowfall_Accumulation
4.5 2.7 0.2 0.7 1.2 0.3 0.4 0.4 0.9 1.6 0.6 0.5 0.6 0.7 0.2 0.0 0.0 0.0 0.0 0.0 0.0 0.0 0.0 0.0 0.0 0.0 0.0 0.0 0.0 0.0 0.0 0.0 0.0 0.0 0.0 0.0 0.0 0.0 0.0 0.0 0.0 0.0 0.0 0.0
5.8 0.4 0.1 0.3 0.4 0.1 0.1 0.3 1.0 0.4 0.2 0.3 0.1 0.1 0.1 0.1 0.0 0.1 0.0 0.0 0.0 0.0 0.0 0.0 0.0 0.0 0.0 0.0 0.0 0.0 0.0 0.0 0.0 0.0 0.0 0.0 0.0 0.0 0.0 0.0 0.0 0.0 0.0 0.0
6.4 0.7 0.1 2.3 13.2 6.8 2.9 4.1 7.4 7.5 9.7 0.6 0.2 0.5 0.5 0.4 0.1 0.6 0.1 0.1 0.0 0.0 0.0 0.0 0.0 0.0 0.0 0.0 0.0 0.0 0.0 0.0 0.0 0.0 0.0 0.0 0.0 0.0 0.0 0.0 0.0 0.0 0.0 0.0
4.4 2.1 10.9 10.8 3.6 4.3 13.4 7.0 5.8 3.8 4.3 2.5 1.6 0.6 0.6 1.0 1.6 1.1 0.8 0.4 0.2 0.2 0.1 0.0 0.0 0.0 0.0 0.0 0.0 0.0 0.0 0.0 0.0 0.0 0.0 0.0 0.0 0.0 0.0 0.0 0.0 0.0 0.0 0.0
12.9 3.6 4.7 0.3 7.0 12.6 10.6 10.9 6.8 8.9 6.8 4.1 0.7 0.9 1.0 1.2 1.6 3.0 3.8 1.4 2.2 0.5 0.2 0.1 0.1 0.0 0.0 0.0 0.0 0.0 0.0 0.0 0.0 0.0 0.0 0.0 0.0 0.0 0.0 0.0 0.0 0.0 0.0 0.0
3.9 4.1 12.1 10.8 2.8 0.1 0.2 2.4 0.8 4.9 7.2 8.0 1.7 6.4 9.0 4.4 4.1 2.6 2.1 2.6 3.6 1.5 0.9 0.3 0.1 0.1 0.0 0.0 0.0 0.0 0.0 0.0 0.0 0.0 0.0 0.0 0.0 0.0 0.0 0.0 0.0 0.0 0.0 0.0
2.7 2.8 2.0 2.9 0.1 0.0 1.4 2.6 1.3 1.2 2.7 3.7 10.2 10.9 8.1 4.7 5.0 3.3 3.9 3.6 2.1 2.2 3.0 1.9 0.9 0.4 0.1 0.1 0.0 0.0 0.0 0.0 0.0 0.0 0.0 0.0 0.0 0.0 0.0 0.0 0.0 0.0 0.0 0.0
1.5 2.6 8.7 0.8 0.0 4.7 5.8 0.2 0.1 0.1 0.3 1.7 2.6 3.3 4.8 5.5 6.1 5.0 4.1 2.4 2.1 3.3 2.2 2.4 1.8 1.2 1.9 0.5 0.0 0.0 0.0 0.0 0.0 0.0 0.0 0.0 0.0 0.0 0.0 0.0 0.0 0.0 0.0 0.0
4.6 13.8 1.7 0.6 3.5 0.3 0.1 0.1 0.1 0.0 0.0 0.0 0.1 0.5 1.1 2.6 2.5 1.2 1.6 0.8 0.6 3.1 2.7 2.5 2.1 1.4 1.5 1.2 0.2 0.1 0.1 0.0 0.0 0.0 0.0 0.0 0.0 0.0 0.0 0.0 0.0 0.0 0.0 0.0
1.7 0.6 0.6 0.1 0.0 0.0 0.0 0.0 0.0 0.0 0.0 0.0 0.0 0.0 0.0 0.2 0.2 0.1 0.1 0.1 0.1 1.3 2.3 1.9 1.6 1.7 0.8 0.4 0.2 0.1 0.7 0.5 0.0 0.0 0.0 0.0 0.0 0.0 0.0 0.0 0.0 0.0 0.0 0.0
0.1 0.0 0.0 0.0 0.0 0.0 0.0 0.0 0.0 0.0 0.0 0.0 0.0 0.0 0.0 0.0 0.0 0.0 0.0 0.0 0.0 1.4 0.9 0.6 0.2 0.6 0.1 0.1 0.1 0.1 0.1 0.1 0.0 0.1 0.0 0.0 0.0 0.0 0.0 0.0 0.0 0.0 0.1 0.0
3.0 0.0 0.0 0.0 0.0 0.0 0.0 0.0 0.0 0.0 0.0 0.0 0.0 0.0 0.0 0.0 0.0 0.0 0.0 0.0 0.0 0.0 0.0 0.0 0.0 0.0 0.0 0.0 0.0 0.1 0.2 0.2 0.2 0.1 0.0 0.0 0.0 0.1 nan nan nan nan nan 0.0
0.1 0.0 0.0 0.0 0.0 0.0 0.0 0.0 0.0 0.0 0.0 0.0 0.0 0.0 0.0 0.0 0.0 nan 0.0 0.0 0.0 0.0 0.0 0.0 0.0 0.0 0.0 0.0 0.0 0.0 0.0 0.1 0.1 0.1 0.1 0.2 0.2 0.3 0.4 0.2 nan nan nan nan
0.0 0.0 0.0 0.0 0.0 0.0 0.0 0.0 0.0 0.0 0.0 0.0 0.0 0.0 0.0 0.0 0.0 0.0 0.0 0.0 0.0 0.0 0.0 0.0 0.0 0.0 0.0 0.0 0.0 0.0 0.0 0.0 0.1 0.1 0.3 0.2 0.3 0.4 0.4 0.9 1.4 1.1 nan nan
0.0 0.0 0.0 0.0 0.0 0.0 0.0 0.0 0.0 0.0 0.0 0.0 0.0 0.0 0.0 0.0 0.0 0.0 0.0 0.0 0.0 0.0 0.0 0.0 0.0 0.0 0.0 0.0 0.0 0.0 0.0 0.0 0.0 0.0 0.2 0.2 0.2 0.3 0.3 0.5 0.9 1.6 0.8 0.3
0.0 0.0 0.0 0.0 0.0 0.0 0.0 0.0 0.0 0.0 0.0 0.0 0.0 0.0 0.0 0.0 0.0 0.0 0.0 0.0 0.0 0.0 0.0 0.0 0.0 0.0 0.0 0.0 0.0 0.0 0.0 0.0 0.0 0.0 0.0 0.3 0.3 0.4 0.7 0.7 0.6 0.7 1.2 1.9
0.0 0.0 0.0 0.0 0.0 0.0 0.0 0.0 0.0 0.0 0.0 0.0 0.0 0.0 0.0 0.0 0.0 0.0 0.0 0.0 0.0 0.0 0.0 0.0 0.0 0.0 0.0 0.0 0.0 0.0 0.0 0.0 0.0 0.0 0.0 0.0 0.0 0.1 0.2 0.4 0.9 0.9 1.0 1.0
0.0 0.0 0.0 0.0 0.0 0.0 0.0 0.0 0.0 0.0 0.0 0.0 0.0 0.0 0.0 0.0 0.0 0.0 0.0 0.0 0.0 0.0 0.0 0.0 0.0 0.0 0.0 0.0 0.0 0.0 0.0 0.0 0.0 0.1 0.1 0.1 0.1 0.0 0.1 0.1 0.1 0.3 0.4 0.7
0.0 0.0 0.0 0.0 0.0 0.0 0.0 0.0 0.0 0.0 0.0 0.0 0.0 0.0 0.0 0.0 0.0 0.0 0.0 0.4 0.5 0.0 0.0 0.0 0.0 0.0 0.0 0.0 0.0 0.0 0.0 0.1 0.1 0.1 0.1 0.1 0.2 0.1 0.2 0.2 0.2 0.2 0.2 0.3
0.0 0.0 0.0 0.0 0.0 0.0 0.0 0.0 0.0 0.0 0.0 0.0 0.0 0.0 0.0 0.0 0.0 0.0 0.0 0.0 0.0 0.2 0.0 0.0 0.0 0.0 0.0 0.0 0.0 0.0 0.1 0.1 0.1 0.2 0.2 0.2 0.3 0.4 0.3 0.0 0.3 0.3 0.5 0.4
0.0 0.0 0.0 0.0 0.0 0.0 0.0 0.0 0.0 0.0 0.0 0.0 0.0 0.0 0.0 0.0 0.0 0.0 0.0 0.0 0.0 0.0 0.0 0.0 0.0 0.0 0.0 0.0 0.0 0.1 0.2 0.3 0.3 0.3 0.4 0.6 1.1 0.5 0.6 0.7 0.5 0.7 1.2 0.7
0.0 0.0 0.0 0.0 0.0 0.0 0.0 0.0 0.0 0.0 0.0 0.1 1.2 1.9 0.2 0.0 0.0 0.0 0.0 0.0 0.1 0.0 0.0 0.0 0.1 0.0 0.0 0.0 0.1 0.2 0.3 0.4 0.5 0.6 0.8 0.9 1.0 2.2 2.3 1.2 1.3 1.6 1.4 1.7
0.0 0.0 0.0 0.0 0.0 0.0 0.0 0.0 0.1 0.1 1.6 0.4 0.6 0.0 0.0 0.0 0.0 0.0 0.1 0.0 0.0 0.0 0.0 0.0 0.0 0.0 0.0 0.2 0.2 0.3 0.4 0.6 0.8 1.0 1.5 2.6 2.6 5.6 2.3 2.7 2.7 2.0 3.9 2.4
0.0 0.0 0.0 0.0 0.0 0.0 0.0 0.0 0.0 0.0 0.2 0.0 0.0 0.0 0.0 0.0 0.1 0.0 0.0 0.0 0.0 0.6 0.2 0.2 0.1 0.0 0.0 0.3 0.3 0.5 0.6 0.7 1.1 1.3 0.7 1.8 3.5 2.2 1.7 4.6 2.9 2.8 3.4 3.2
0.0 0.0 0.0 0.0 0.0 0.0 0.0 0.0 0.0 0.0 0.0 0.0 0.0 0.0 0.0 0.0 0.0 0.0 0.0 0.1 0.0 0.1 0.2 0.1 0.0 0.0 0.5 0.6 0.5 0.7 0.7 0.6 0.9 1.8 1.0 2.6 2.4 6.0 4.2 2.7 4.2 3.9 4.0 3.2
0.0 0.0 0.0 0.0 0.0 0.0 0.0 0.0 0.0 0.0 0.0 0.0 0.0 0.1 0.1 0.0 0.0 0.0 0.1 0.1 0.1 0.0 0.2 0.6 1.6 1.4 0.8 0.3 0.5 0.7 0.4 0.4 0.6 0.7 1.4 1.3 1.4 1.2 2.4 2.1 3.5 5.0 6.5 7.8
0.0 0.0 0.0 0.0 0.0 0.0 0.0 0.0 0.0 0.0 0.0 0.1 0.1 0.1 0.0 0.1 0.1 0.0 0.0 0.2 0.2 0.3 0.5 0.9 0.6 0.3 0.4 0.6 0.5 0.4 0.4 0.4 1.2 0.4 1.3 2.4 2.6 4.8 5.0 4.9 5.7 6.7 5.8 5.1
Water_Equivalent
0.60 0.45 0.03 0.10 0.17 0.04 0.06 0.06 0.10 0.29 0.10 0.06 0.09 0.10 0.03 0.00 0.00 0.00 0.00 0.00 0.00 0.00 0.00 0.00 0.00 0.00 0.00 0.00 0.00 0.00 0.00 0.00 0.00 0.00 0.00 0.00 0.00 0.00 0.00 0.00 0.00 0.00 0.00 0.00
0.91 0.07 0.02 0.04 0.06 0.01 0.01 0.06 0.21 0.10 0.05 0.04 0.02 0.03 0.02 0.01 0.00 0.02 0.01 0.00 0.00 0.00 0.00 0.00 0.00 0.00 0.00 0.00 0.00 0.00 0.00 0.00 0.00 0.00 0.00 0.00 0.00 0.00 0.00 0.00 0.00 0.00 0.00 0.00
0.95 0.11 0.02 0.29 1.46 0.83 0.44 0.64 1.02 0.89 1.24 0.11 0.05 0.08 0.09 0.07 0.03 0.13 0.03 0.02 0.01 0.00 0.00 0.00 0.00 0.00 0.00 0.00 0.00 0.00 0.00 0.00 0.00 0.00 0.00 0.00 0.00 0.00 0.00 0.00 0.00 0.00 0.00 0.00
0.77 0.46 1.70 1.30 0.60 0.70 1.71 0.94 0.88 0.64 0.66 0.47 0.28 0.12 0.11 0.19 0.33 0.18 0.14 0.07 0.05 0.03 0.01 0.00 0.00 0.00 0.00 0.00 0.00 0.00 0.00 0.00 0.00 0.00 0.00 0.00 0.00 0.00 0.00 0.00 0.00 0.00 0.00 0.00
2.23 0.55 0.73 0.05 0.89 1.57 1.23 1.15 1.06 1.28 1.08 0.76 0.13 0.18 0.26 0.36 0.43 0.52 0.64 0.26 0.40 0.11 0.04 0.01 0.02 0.00 0.00 0.00 0.00 0.00 0.00 0.00 0.00 0.00 0.00 0.00 0.00 0.00 0.00 0.00 0.00 0.00 0.00 0.00
0.74 0.55 1.35 1.28 0.47 0.02 0.04 0.26 0.15 0.88 1.17 1.34 0.40 0.92 1.65 1.08 1.08 0.58 0.53 0.52 0.69 0.31 0.21 0.06 0.02 0.01 0.01 0.00 0.00 0.00 0.00 0.00 0.00 0.00 0.00 0.00 0.00 0.00 0.00 0.00 0.00 0.00 0.00 0.00
0.51 0.50 0.30 0.53 0.02 0.00 0.15 0.34 0.25 0.24 0.51 0.67 1.33 1.81 1.76 1.20 1.52 0.91 1.13 0.94 0.50 0.42 0.60 0.36 0.22 0.09 0.03 0.02 0.01 0.00 0.00 0.00 0.00 0.00 0.00 0.00 0.00 0.00 0.00 0.00 0.00 0.00 0.00 0.00
0.33 0.56 1.09 0.17 0.00 0.59 0.86 0.05 0.02 0.02 0.06 0.34 0.55 0.70 1.04 1.15 1.25 1.16 1.03 0.63 0.57 0.77 0.52 0.50 0.37 0.24 0.49 0.12 0.01 0.00 0.00 0.00 0.00 0.00 0.00 0.00 0.00 0.00 0.00 0.00 0.00 0.00 0.00 0.00
0.76 1.80 0.38 0.16 0.80 0.08 0.03 0.03 0.02 0.01 0.00 0.00 0.02 0.11 0.26 0.52 0.52 0.28 0.41 0.23 0.15 0.70 0.63 0.64 0.58 0.35 0.33 0.26 0.05 0.04 0.02 0.00 0.00 0.00 0.00 0.00 0.00 0.00 0.00 0.00 0.00 0.00 0.00 0.00
0.32 0.13 0.13 0.04 0.00 0.01 0.00 0.01 0.00 0.00 0.00 0.00 0.00 0.00 0.01 0.05 0.04 0.04 0.03 0.03 0.02 0.29 0.49 0.41 0.43 0.47 0.20 0.09 0.04 0.02 0.28 0.19 0.01 0.00 0.00 0.00 0.00 0.00 0.00 0.00 0.00 0.00 0.00 0.00
0.02 0.00 0.00 0.00 0.01 0.00 0.00 0.00 0.00 0.00 0.00 0.00 0.00 0.00 0.00 0.00 0.00 0.01 0.01 0.01 0.01 0.45 0.26 0.14 0.06 0.16 0.04 0.03 0.03 0.03 0.03 0.02 0.02 0.02 0.00 0.00 0.00 0.00 0.00 0.00 0.01 0.01 0.02 0.01
0.54 0.01 0.01 0.01 0.00 0.00 0.00 0.00 0.00 0.00 0.00 0.00 0.00 0.00 0.00 0.00 0.00 0.00 0.00 0.00 0.00 0.00 0.00 0.00 0.00 0.02 0.01 0.00 0.00 0.02 0.04 0.04 0.05 0.02 0.01 0.01 0.01 0.03 nan nan nan nan nan 0.00
0.03 0.00 0.00 0.00 0.00 0.00 0.00 0.00 0.00 0.00 0.00 0.00 0.00 0.00 0.00 0.00 0.00 nan 0.00 0.00 0.00 0.00 0.00 0.00 0.00 0.00 0.00 0.00 0.00 0.00 0.01 0.03 0.02 0.01 0.02 0.03 0.04 0.05 0.09 0.08 nan nan nan nan
0.00 0.00 0.00 0.00 0.00 0.00 0.00 0.00 0.00 0.00 0.00 0.00 0.00 0.00 0.00 0.00 0.00 0.00 0.00 0.00 0.00 0.00 0.00 0.00 0.00 0.00 0.00 0.00 0.00 0.00 0.00 0.00 0.02 0.03 0.06 0.05 0.07 0.09 0.09 0.19 0.26 0.23 nan nan
0.00 0.00 0.00 0.00 0.00 0.00 0.00 0.00 0.00 0.00 0.00 0.00 0.00 0.00 0.00 0.00 0.00 0.00 0.00 0.00 0.00 0.00 0.00 0.00 0.00 0.00 0.00 0.00 0.00 0.00 0.00 0.00 0.00 0.00 0.04 0.05 0.05 0.07 0.07 0.12 0.19 0.32 0.18 0.08
0.00 0.00 0.00 0.00 0.00 0.00 0.00 0.00 0.00 0.00 0.00 0.00 0.00 0.00 0.00 0.00 0.00 0.00 0.00 0.00 0.00 0.00 0.00 0.00 0.00 0.00 0.00 0.00 0.00 0.00 0.00 0.00 0.00 0.00 0.00 0.08 0.06 0.09 0.16 0.17 0.16 0.16 0.25 0.37
0.00 0.00 0.00 0.00 0.00 0.00 0.00 0.00 0.00 0.00 0.00 0.00 0.00 0.00 0.00 0.00 0.00 0.00 0.00 0.00 0.00 0.00 0.00 0.00 0.00 0.00 0.00 0.00 0.00 0.00 0.00 0.00 0.00 0.00 0.00 0.00 0.00 0.03 0.05 0.11 0.21 0.21 0.24 0.23
0.00 0.00 0.00 0.00 0.00 0.00 0.00 0.00 0.00 0.00 0.00 0.00 0.00 0.00 0.00 0.00 0.00 0.00 0.00 0.00 0.00 0.00 0.00 0.00 0.00 0.00 0.00 0.00 0.00 0.00 0.00 0.01 0.00 0.02 0.03 0.03 0.02 0.01 0.02 0.03 0.05 0.10 0.12 0.24
0.00 0.00 0.00 0.00 0.00 0.00 0.00 0.00 0.00 0.00 0.00 0.00 0.00 0.00 0.00 0.00 0.00 0.00 0.00 0.14 0.21 0.00 0.00 0.00 0.00 0.00 0.00 0.00 0.00 0.01 0.02 0.04 0.03 0.03 0.04 0.02 0.09 0.05 0.06 0.07 0.07 0.08 0.09 0.11
0.00 0.00 0.00 0.00 0.00 0.00 0.00 0.00 0.00 0.00 0.00 0.00 0.00 0.00 0.00 0.00 0.00 0.01 0.00 0.00 0.01 0.07 0.00 0.00 0.00 0.00 0.00 0.00 0.00 0.01 0.04 0.05 0.06 0.08 0.10 0.08 0.10 0.15 0.11 0.02 0.10 0.11 0.18 0.16
0.00 0.00 0.00 0.00 0.00 0.00 0.00 0.00 0.00 0.00 0.00 0.00 0.00 0.01 0.01 0.00 0.00 0.01 0.00 0.01 0.00 0.00 0.00 0.00 0.00 0.01 0.00 0.02 0.00 0.06 0.08 0.11 0.11 0.11 0.16 0.23 0.43 0.21 0.24 0.26 0.21 0.25 0.47 0.25
0.00 0.00 0.00 0.00 0.00 0.00 0.00 0.00 0.00 0.01 0.00 0.03 0.50 0.77 0.09 0.00 0.00 0.00 0.00 0.02 0.03 0.00 0.01 0.01 0.03 0.00 0.01 0.00 0.02 0.10 0.13 0.16 0.22 0.25 0.30 0.35 0.37 0.89 0.91 0.49 0.50 0.65 0.55 0.68
0.00 0.00 0.00 0.00 0.00 0.00 0.00 0.00 0.06 0.02 0.63 0.17 0.23 0.01 0.01 0.00 0.00 0.02 0.04 0.00 0.00 0.00 0.00 0.00 0.00 0.00 0.00 0.08 0.08 0.12 0.16 0.25 0.31 0.36 0.56 1.02 1.00 2.22 0.87 0.97 1.04 0.76 1.55 0.90
0.00 0.00 0.00 0.00 0.00 0.00 0.00 0.00 0.00 0.00 0.09 0.00 0.00 0.00 0.00 0.01 0.04 0.00 0.00 0.00 0.00 0.26 0.07 0.07 0.05 0.00 0.00 0.11 0.14 0.21 0.22 0.28 0.45 0.51 0.26 0.61 1.38 0.87 0.66 1.82 1.05 1.08 1.33 1.20
0.00 0.00 0.00 0.00 0.00 0.00 0.00 0.00 0.00 0.00 0.00 0.00 0.00 0.00 0.00 0.00 0.01 0.00 0.01 0.03 0.01 0.02 0.07 0.03 0.00 0.00 0.20 0.23 0.20 0.26 0.30 0.24 0.36 0.72 0.38 1.04 0.98 2.41 1.67 1.00 1.62 1.56 1.56 1.22
0.00 0.00 0.00 0.00 0.00 0.00 0.00 0.00 0.00 0.00 0.00 0.00 0.00 0.05 0.02 0.01 0.00 0.00 0.02 0.02 0.02 0.01 0.07 0.24 0.62 0.55 0.32 0.14 0.19 0.27 0.17 0.16 0.22 0.28 0.56 0.53 0.55 0.47 0.90 0.81 1.40 1.96 2.60 3.13
0.00 0.00 0.00 0.00 0.00 0.00 0.00 0.00 0.00 0.00 0.01 0.02 0.04 0.03 0.02 0.04 0.04 0.02 0.01 0.07 0.08 0.12 0.20 0.36 0.23 0.13 0.16 0.23 0.20 0.16 0.15 0.15 0.40 0.15 0.51 0.97 1.00 1.92 1.90 1.89 2.24 2.68 2.27 1.92
SL_Ratio
7.4 6.1 5.2 6.3 7.0 6.4 7.6 7.3 8.8 5.5 6.2 8.0 7.0 6.6 5.5 5.0 nan nan nan 5.0 5.0 nan nan nan nan nan nan nan nan nan nan nan nan nan nan nan nan nan nan nan nan nan nan nan
6.4 5.2 4.2 6.5 6.8 5.5 5.8 4.9 4.5 3.8 4.5 7.0 5.0 4.9 4.1 4.0 5.0 5.2 3.9 nan nan nan nan nan nan nan nan nan nan nan nan nan nan nan nan nan nan nan nan nan nan nan nan nan
6.7 6.4 4.7 8.1 9.0 8.1 6.7 6.3 7.2 8.4 7.8 5.4 5.2 5.9 5.5 5.6 4.9 4.4 4.7 3.6 4.7 nan nan nan nan nan nan nan nan nan nan nan nan nan nan nan nan nan nan nan nan nan nan nan
5.6 4.7 6.4 8.3 5.9 6.1 7.8 7.4 6.6 6.0 6.5 5.4 5.7 5.0 5.2 5.0 4.9 5.9 5.7 5.3 4.5 4.6 5.5 6.7 nan nan nan nan nan nan nan nan nan nan nan nan nan nan nan nan nan nan nan nan
5.8 6.6 6.5 6.3 7.9 8.0 8.7 9.5 6.5 6.9 6.3 5.4 5.2 5.1 4.1 3.3 3.8 5.8 6.0 5.5 5.4 4.9 5.4 5.6 5.5 5.0 nan nan nan nan nan nan nan nan nan nan nan nan nan nan nan nan nan nan
5.2 7.5 9.0 8.5 6.0 3.8 4.4 9.0 5.5 5.7 6.2 6.0 4.2 6.9 5.4 4.1 3.8 4.6 4.1 4.9 5.2 5.0 4.2 4.6 5.6 5.3 3.3 2.5 nan nan nan nan nan nan nan nan nan nan nan nan nan nan nan nan
5.3 5.7 6.7 5.4 3.7 nan 9.1 7.6 5.1 4.9 5.3 5.5 7.7 6.0 4.6 3.9 3.3 3.6 3.5 3.8 4.3 5.2 5.0 5.3 4.2 4.8 5.1 3.8 3.3 nan nan nan nan nan nan nan nan nan nan nan nan nan nan nan
4.6 4.6 8.0 4.5 5.0 8.0 6.8 4.0 4.0 3.9 4.4 4.9 4.8 4.8 4.6 4.8 4.9 4.3 3.9 3.8 3.6 4.4 4.3 4.9 4.9 4.9 3.9 3.8 2.5 2.5 nan nan nan nan nan nan nan nan nan nan nan nan nan nan
6.0 7.7 4.4 3.9 4.3 3.7 3.2 3.6 3.8 4.1 nan 2.5 3.9 4.3 4.4 5.0 4.8 4.2 4.0 3.7 3.8 4.4 4.3 3.8 3.6 4.0 4.4 4.7 4.4 3.0 2.8 0.0 nan nan nan nan nan nan nan nan nan nan nan nan
5.3 4.8 4.6 3.9 2.5 3.3 2.5 3.3 nan nan nan nan nan nan 3.8 3.7 4.1 3.7 3.8 4.0 4.1 4.5 4.8 4.6 3.7 3.6 3.9 4.1 4.3 3.9 2.6 2.7 2.5 nan nan nan nan nan nan 2.0 2.9 5.0 2.5 nan
5.4 5.0 4.3 3.3 3.8 3.8 5.0 nan nan nan nan nan nan nan nan nan 5.0 3.8 3.3 3.3 3.5 3.1 3.5 4.0 3.7 3.8 3.4 3.6 3.5 3.6 3.9 3.2 3.1 2.6 3.3 5.0 nan 2.5 nan 5.0 3.1 2.7 2.5 2.5
5.5 4.4 4.2 4.6 nan nan nan nan nan nan nan nan nan nan nan nan nan nan nan nan nan nan nan nan nan 2.5 2.8 5.0 5.0 4.1 4.0 4.0 4.5 4.7 4.6 3.8 4.1 3.0 nan nan nan nan nan nan
3.3 nan nan nan nan nan nan nan nan nan nan nan nan nan nan nan nan nan nan nan nan nan nan nan nan nan nan nan nan nan 3.8 4.4 4.4 4.5 4.6 4.8 4.9 5.1 4.3 2.8 nan nan nan nan
nan nan nan nan nan nan nan nan nan nan nan nan nan nan nan nan nan nan nan nan nan nan nan nan nan nan nan nan nan nan nan nan 4.2 4.3 4.4 4.4 4.5 4.6 4.7 4.8 5.1 4.8 nan nan
nan nan nan nan nan nan nan nan nan nan nan nan nan nan nan nan nan nan nan nan nan nan nan nan nan nan nan nan nan nan nan nan nan nan 4.6 4.6 4.6 4.5 4.5 4.1 4.7 5.0 4.3 4.2
nan nan nan nan nan nan nan nan nan nan nan nan nan nan nan nan nan nan nan nan nan nan nan nan nan nan nan nan nan nan nan nan nan nan 0.0 4.3 4.5 4.3 4.2 4.0 3.9 4.3 5.0 5.3
nan nan nan nan nan nan nan nan nan nan nan nan nan nan nan nan nan nan nan nan nan nan nan nan nan nan nan nan nan nan nan nan nan nan nan nan nan 3.1 3.9 4.0 4.2 4.1 4.3 4.1
nan nan nan nan nan nan nan nan nan nan nan nan nan nan nan nan nan nan nan nan nan nan nan nan nan nan nan nan nan nan nan 2.5 0.0 2.6 2.5 2.5 2.5 2.7 2.5 2.6 2.8 3.5 3.5 3.1
nan nan nan nan nan nan nan nan nan nan nan nan nan nan nan nan nan nan nan 2.5 2.5 nan 2.1 nan nan nan nan nan 2.5 2.5 2.5 2.5 2.6 2.4 2.5 2.6 2.5 2.5 2.5 2.5 2.5 2.6 2.7 2.6
nan nan nan nan nan nan nan nan nan nan nan nan nan nan nan 2.5 2.5 2.5 0.0 3.3 3.1 2.9 nan nan nan nan nan nan 1.7 2.4 2.5 2.5 2.5 2.5 2.5 2.5 2.5 2.5 2.5 2.5 2.5 2.6 2.6 2.6
nan nan nan nan nan nan nan nan 3.3 nan nan nan nan 2.5 2.6 nan 2.5 2.2 3.0 2.4 nan nan nan nan nan 2.7 nan 2.6 2.5 2.5 2.5 2.5 2.5 2.5 2.5 2.5 2.5 2.5 2.5 2.6 2.6 2.6 2.5 2.7
nan nan nan nan nan nan nan nan nan 2.7 2.5 2.5 2.5 2.5 2.5 nan nan nan nan 2.4 2.6 nan 2.4 2.6 3.1 3.3 2.9 5.0 2.6 2.5 2.6 2.5 2.5 2.5 2.6 2.5 2.6 2.5 2.5 2.5 2.5 2.5 2.5 2.5
nan nan nan nan nan nan nan nan 2.5 2.6 2.5 2.5 2.5 2.8 2.5 2.9 nan 2.5 2.5 nan nan 2.5 nan 2.1 2.5 nan nan 2.6 2.5 2.5 2.5 2.6 2.7 2.8 2.7 2.6 2.6 2.5 2.7 2.8 2.6 2.6 2.5 2.7
nan nan nan nan nan nan nan nan nan nan 2.5 nan nan nan nan 2.5 2.5 nan nan nan nan 2.5 2.5 2.5 2.5 nan nan 2.5 2.5 2.5 2.6 2.6 2.5 2.5 2.8 3.0 2.5 2.5 2.6 2.5 2.8 2.6 2.6 2.7
nan nan nan nan nan nan nan nan nan nan nan nan nan nan nan nan 2.7 nan 2.5 2.5 2.7 2.6 2.5 2.5 nan nan 2.5 2.5 2.5 2.5 2.5 2.6 2.5 2.5 2.5 2.5 2.5 2.5 2.5 2.7 2.6 2.5 2.6 2.6
nan nan nan nan nan nan nan nan nan nan nan 2.1 nan 2.5 2.6 2.8 nan 2.5 2.6 2.6 2.4 2.5 2.5 2.5 2.5 2.5 2.5 2.5 2.5 2.5 2.5 2.6 2.5 2.5 2.5 2.5 2.5 2.6 2.7 2.6 2.5 2.5 2.5 2.5
nan nan nan nan nan nan nan nan nan 2.5 2.3 2.5 2.5 2.5 2.5 2.5 2.5 2.4 2.5 2.5 2.5 2.5 2.5 2.5 2.5 2.7 2.5 2.5 2.5 2.5 2.5 2.5 3.0 2.6 2.5 2.5 2.6 2.5 2.6 2.6 2.5 2.5 2.6 2.7